Location: Newark
(40.9833°N, 0.0333°W)
Time: 05:19:04
(UTC+00:00)

Vanguard 2 Rocket - Pass Details

Date: 27 October 2020
Orbit: 554 x 3326 km, 32.9° (Epoch: 24 November)

Event Time Altitude Azimuth Distance (km) Brightness Sun altitude
Rises 23:49:45 0° 263° (W) 3,725 - -62.2°
Reaches altitude 10° 23:52:41 10° 247° (WSW) 3,103 - -62.2°
Maximum altitude 23:58:26 22° 200° (SSW) 2,935 - -62.0°
Drops below altitude 10° 00:06:41 10° 157° (SSE) 4,643 - -61.8°
Sets 00:12:31 0° 145° (SE) 6,188 - -61.5°
